Date String (YYYY-MM-DD hh:mm:ss) UTC,Instrument flags,absolute air pressure of the measurement (hPa),sample flow rate (lpm),inlet stack bypass flow (lpm),air temperature of the measurement (°C),ambient temperature measured by the external sensor (°C),aerosol sample conditioner tube jacket temperature (°C),OPC LED temperature (°C),internal box temperature (°C),relative humidity of the measurement (%),span deviation,mass concentration of particles derived from Lorenz-Mie calculation of OPC scattering (μg/m³),mass concentration of particles derived from Lorenz-Mie calculation of OPC scattering (μg/m³),mass concentration of particles derived from Lorenz-Mie calculation of OPC scattering (μg/m³)
DateTimeUTC,F1_M11,P_M11,Q1_M11,Q2_M11,T1_M11,T2_M11,T3_M11,T4_M11,T5_M11,U1_M11,ZSPAN_M11,X0_M11,X2_M11,X1_M11
2024-02-21 18:00:00,SystemResetWarning,0823.3,5.00,000.00,023.7,023.2,000.0,032.1,025.5,16.8,0000.0,0009.45,0005.16,0004.59
2024-02-21 18:01:00,SystemResetWarning,0823.2,5.00,000.00,023.8,023.2,000.0,032.1,025.5,16.9,0000.0,0009.44,0005.16,0004.59
2024-02-21 18:02:00,SystemResetWarning,0823.0,5.00,000.00,023.7,023.2,000.0,032.1,025.6,17.1,0000.0,0009.43,0005.16,0004.59
2024-02-21 18:03:00,SystemResetWarning,0823.0,4.99,000.00,023.8,023.2,000.0,032.1,025.6,17.1,0000.0,0010.20,0005.16,0004.61
2024-02-21 18:04:00,SystemResetWarning,0823.0,5.00,000.00,023.8,023.2,000.0,032.1,025.6,17.2,0000.0,0010.23,0005.13,0004.59
2024-02-21 18:05:00,SystemResetWarning,0823.0,5.01,000.00,023.8,023.2,000.0,032.1,025.6,17.3,0000.0,0010.19,0005.08,0004.56
2024-02-21 18:06:00,SystemResetWarning,0823.1,5.00,000.00,023.8,023.2,000.0,032.1,025.6,17.2,0000.0,0010.12,0005.05,0004.55
2024-02-21 18:07:00,SystemResetWarning,0823.1,5.00,000.00,023.8,023.2,000.0,032.1,025.6,17.1,0000.0,0010.06,0005.05,0004.55
2024-02-21 18:08:00,SystemResetWarning,0823.0,5.00,000.00,023.8,023.2,000.0,032.1,025.6,16.8,0000.0,0009.95,0005.01,0004.55
2024-02-21 18:09:00,SystemResetWarning,0823.0,5.01,000.00,023.8,023.2,000.0,032.1,025.6,16.5,0000.0,0009.47,0004.97,0004.54
2024-02-21 18:10:00,SystemResetWarning,0823.0,5.01,000.00,023.8,023.2,000.0,032.1,025.6,16.8,0000.0,0009.92,0004.97,0004.55
2024-02-21 18:11:00,SystemResetWarning,0823.0,5.00,000.00,023.8,023.2,000.0,032.1,025.6,17.1,0000.0,0010.60,0004.99,0004.57
2024-02-21 18:12:00,SystemResetWarning,0823.0,5.00,000.00,023.8,023.2,000.0,032.2,025.6,17.2,0000.0,0011.56,0005.02,0004.58
2024-02-21 18:13:00,SystemResetWarning,0822.9,5.00,000.00,023.8,023.2,000.0,032.2,025.7,17.3,0000.0,0011.70,0005.02,0004.58
2024-02-21 18:14:00,SystemResetWarning,0822.9,5.01,000.00,023.8,023.2,000.0,032.2,025.7,17.3,0000.0,0011.38,0005.02,0004.57
2024-02-21 18:15:00,SystemResetWarning,0822.9,4.99,000.00,023.8,023.2,000.0,032.2,025.7,17.8,0000.0,0011.39,0005.04,0004.58
2024-02-21 18:16:00,SystemResetWarning,0823.3,5.00,000.00,023.9,023.2,000.0,032.2,025.7,17.6,0000.0,0011.33,0005.03,0004.59
2024-02-21 18:17:00,SystemResetWarning,0822.9,5.00,000.00,023.9,023.3,000.0,032.2,025.7,17.3,0000.0,0011.72,0005.02,0004.57
2024-02-21 18:18:00,SystemResetWarning,0823.0,4.99,000.00,023.9,023.3,000.0,032.2,025.7,17.4,0000.0,0011.77,0005.00,0004.56
2024-02-21 18:19:00,SystemResetWarning,0823.0,5.00,000.00,023.9,023.3,000.0,032.2,025.7,17.5,0000.0,0012.47,0005.03,0004.55
2024-02-21 18:20:00,SystemResetWarning,0822.9,5.01,000.00,023.9,023.3,000.0,032.2,025.7,17.9,0000.0,0012.62,0005.03,0004.55
2024-02-21 18:21:00,SystemResetWarning,0823.0,5.01,000.00,023.9,023.3,000.0,032.3,025.7,18.2,0000.0,0011.90,0005.02,0004.55
2024-02-21 18:22:00,SystemResetWarning,0823.0,5.00,000.00,023.9,023.3,000.0,032.3,025.7,18.1,0000.0,0011.17,0005.02,0004.55
2024-02-21 18:23:00,SystemResetWarning,0822.8,5.00,000.00,023.9,023.3,000.0,032.3,025.7,17.8,0000.0,0010.83,0005.00,0004.56
2024-02-21 18:24:00,SystemResetWarning,0822.9,5.00,000.00,023.9,023.3,000.0,032.3,025.7,17.8,0000.0,0010.63,0005.01,0004.58
2024-02-21 18:25:00,SystemResetWarning,0823.0,5.00,000.00,023.9,023.3,000.0,032.3,025.7,18.0,0000.0,0010.11,0005.03,0004.61
2024-02-21 18:26:00,SystemResetWarning,0823.1,5.00,000.00,023.9,023.3,000.0,032.3,025.8,17.8,0000.0,0010.60,0005.07,0004.64
2024-02-21 18:27:00,SystemResetWarning,0823.3,4.99,000.00,024.0,023.4,000.0,032.3,025.8,18.0,0000.0,0010.69,0005.13,0004.68
2024-02-21 18:28:00,SystemResetWarning,0822.8,5.00,000.00,024.0,023.4,000.0,032.3,025.9,18.0,0000.0,0010.47,0005.18,0004.73
2024-02-21 18:29:00,SystemResetWarning,0822.8,5.00,000.00,024.0,023.4,000.0,032.3,025.8,17.6,0000.0,0010.42,0005.24,0004.79
2024-02-21 18:30:00,SystemResetWarning,0822.7,5.00,000.00,024.0,023.4,000.0,032.3,025.8,17.8,0000.0,0010.20,0005.29,0004.84
2024-02-21 18:31:00,SystemResetWarning,0822.7,5.00,000.00,024.0,023.4,000.0,032.3,025.8,18.1,0000.0,0010.32,0005.34,0004.89
2024-02-21 18:32:00,SystemResetWarning,0822.7,5.00,000.00,024.0,023.4,000.0,032.3,025.9,18.0,0000.0,0011.06,0005.41,0004.93
2024-02-21 18:33:00,SystemResetWarning,0822.7,5.01,000.00,024.0,023.4,000.0,032.3,025.9,17.8,0000.0,0011.05,0005.48,0004.98
2024-02-21 18:34:00,SystemResetWarning,0822.8,5.00,000.00,024.0,023.4,000.0,032.3,025.9,17.9,0000.0,0011.51,0005.54,0005.02
2024-02-21 18:35:00,SystemResetWarning,0822.8,5.00,000.00,024.0,023.4,000.0,032.4,025.9,17.6,0000.0,0011.77,0005.59,0005.07
2024-02-21 18:36:00,SystemResetWarning,0822.7,5.00,000.00,024.0,023.4,000.0,032.4,025.9,17.6,0000.0,0011.96,0005.67,0005.10
2024-02-21 18:37:00,SystemResetWarning,0822.8,5.00,000.00,024.0,023.5,000.0,032.4,025.9,17.7,0000.0,0011.84,0005.77,0005.13
2024-02-21 18:38:00,SystemResetWarning,0822.8,5.00,000.00,024.0,023.5,000.0,032.4,025.9,17.4,0000.0,0012.21,0005.80,0005.16
2024-02-21 18:39:00,SystemResetWarning,0822.8,5.00,000.00,024.1,023.5,000.0,032.4,025.9,17.1,0000.0,0012.50,0005.86,0005.19
2024-02-21 18:40:00,SystemResetWarning,0822.7,4.99,000.00,024.1,023.5,000.0,032.4,025.9,16.9,0000.0,0012.75,0005.90,0005.20
2024-02-21 18:41:00,SystemResetWarning,0822.6,5.00,000.00,024.1,023.5,000.0,032.4,025.9,16.8,0000.0,0013.19,0005.97,0005.22
2024-02-21 18:42:00,SystemResetWarning,0822.6,4.99,000.00,024.1,023.5,000.0,032.4,025.9,17.1,0000.0,0013.52,0006.06,0005.26
2024-02-21 18:43:00,SystemResetWarning,0822.5,5.01,000.00,024.1,023.5,000.0,032.4,025.9,16.7,0000.0,0013.07,0006.07,0005.28
2024-02-21 18:44:00,SystemResetWarning,0822.6,5.01,000.00,024.1,023.5,000.0,032.4,026.0,16.6,0000.0,0013.41,0006.11,0005.28
2024-02-21 18:45:00,SystemResetWarning,0822.9,5.00,000.00,024.1,023.5,000.0,032.4,026.0,16.3,0000.0,0013.58,0006.09,0005.29
2024-02-21 18:46:00,SystemResetWarning,0823.0,4.99,000.00,024.1,023.5,000.0,032.4,026.0,16.5,0000.0,0014.06,0006.11,0005.29
2024-02-21 18:47:00,SystemResetWarning,0822.9,4.99,000.00,024.1,023.6,000.0,032.5,026.0,16.9,0000.0,0014.72,0006.07,0005.28
2024-02-21 18:48:00,SystemResetWarning,0822.6,5.01,000.00,024.1,023.6,000.0,032.5,026.0,16.3,0000.0,0015.05,0006.05,0005.28
2024-02-21 18:49:00,SystemResetWarning,0822.5,5.01,000.00,024.2,023.6,000.0,032.5,026.0,15.7,0000.0,0015.55,0006.06,0005.27
2024-02-21 18:50:00,SystemResetWarning,0822.4,5.00,000.00,024.2,023.6,000.0,032.5,026.1,16.0,0000.0,0016.71,0006.03,0005.26
2024-02-21 18:51:00,SystemResetWarning,0822.4,4.99,000.00,024.2,023.6,000.0,032.5,026.1,15.8,0000.0,0016.57,0005.99,0005.25
2024-02-21 18:52:00,SystemResetWarning,0822.4,5.00,000.00,024.2,023.6,000.0,032.5,026.1,15.7,0000.0,0015.90,0005.90,0005.23
2024-02-21 18:53:00,SystemResetWarning,0822.3,5.00,000.00,024.2,023.6,000.0,032.5,026.1,15.6,0000.0,0015.82,0005.82,0005.19
2024-02-21 18:54:00,SystemResetWarning,0822.4,5.00,000.00,024.2,023.6,000.0,032.5,026.1,16.3,0000.0,0016.12,0005.88,0005.20
2024-02-21 18:55:00,SystemResetWarning,0822.3,5.00,000.00,024.2,023.7,000.0,032.6,026.1,17.0,0000.0,0016.14,0005.92,0005.23
2024-02-21 18:56:00,SystemResetWarning,0822.2,5.00,000.00,024.2,023.7,000.0,032.6,026.1,17.2,0000.0,0016.13,0005.98,0005.26
2024-02-21 18:57:00,SystemResetWarning,0822.2,5.00,000.00,024.2,023.7,000.0,032.6,026.1,17.3,0000.0,0016.12,0006.01,0005.27
2024-02-21 18:58:00,SystemResetWarning,0822.2,5.01,000.00,024.3,023.7,000.0,032.6,026.1,17.0,0000.0,0015.86,0006.05,0005.30
2024-02-21 18:59:00,SystemResetWarning,0822.2,5.00,000.00,024.3,023.7,000.0,032.6,026.2,16.8,0000.0,0015.43,0006.06,0005.31
